(224087) = 2005 NR86

Discovered at Catalina on 2005-07-03 by CSS.

Orbit

Orbit type: Main Belt

Note: WebGL enabled browser required.

epoch2023-02-25.0
epoch JD2460000.5
perihelion date2020-11-19.33783
perihelion JD2459172.83783
argument of perihelion (°)108.20213
ascending node (°)206.82969
inclination (°)10.44198
eccentricity0.2264879
perihelion distance (AU)1.9000678
Tisserand w.r.t. Jupiter3.4
ΔV w.r.t. Earth (km/sec)9.2
semimajor axis (AU)2.4564163
mean anomaly (°)211.88685
mean daily motion (°/day)0.25600640
aphelion distance (AU)3.013
period (years)3.85
P-vector [x]0.70039880
P-vector [y]-0.70400251
P-vector [z]-0.11756696
Q-vector [x]0.70904878
Q-vector [y]0.66740238
Q-vector [z]0.22764863
absolute magnitude17.01
phase slope0.15
uncertainty0
referenceMPEC 2023-F215
observations used454
oppositions14
arc length (days)8424
first opposition used2000
last opposition used2023
residual rms (arc-secs)0.81
perturbers coarse indicatorM-v
perturbers precise indicator003Ek
first observation date used2000-03-04.0
last observation date used2023-03-28.0
computer nameMPCLINUX
JD of orbit computation2456639.636020
perihelion JD uncertainty (days)5.7380E-05
argument of perihelion uncertainty (°)2.0957E-05
ascending node uncertainty (°)1.5699E-05
inclination uncertainty (°)6.0635E-06
eccentricity uncertainty 3.8920E-08
perihelion distance uncertainty (AU)9.0951E-08
Minimum Orbit Intersection Distances (in AU)
for orbit epoch: 2460000.5, reference: E2023-F48
Mercury1.49484
Venus1.20082
Earth0.9169
Mars0.60819
Jupiter2.38887
Saturn6.21414
Uranus15.5311
Neptune27.3202

Observations

469 total observations over interval: 2000 03 04.342230 – 2023 03 28.16974
These data are available for download (format description).

Date (UT) J2000 RA J2000 Dec Magn Location Ref
2000 03 04.342230 10 40 31.069 -03 29 49.34 21.24 V 645 – Apache Point-Sloan Digital Sky Survey MPS 141726
2000 03 04.345702 10 40 30.882 -03 29 47.87 21.96   645 – Apache Point-Sloan Digital Sky Survey MPS 141726
2001 06 30.49895 20 26 14.64 +01 38 11.3 19.7   608 – Haleakala-AMOS MPS 141726
2001 06 30.50944 20 26 14.37 +01 38 15.1 20.1   608 – Haleakala-AMOS MPS 141726
2001 06 30.52049 20 26 14.12 +01 38 18.6 20.3   608 – Haleakala-AMOS MPS 141726
2005 07 03.37326 22 49 52.28 +08 45 03.4 20.1 V 703 – Catalina Sky Survey MPS 138512
2005 07 03.38206 22 49 52.50 +08 45 09.8 19.4 V 703 – Catalina Sky Survey MPS 138512
2005 07 03.39074 22 49 52.93 +08 45 15.2 20.4 V 703 – Catalina Sky Survey MPS 138512
2005 07 03.39934 22 49 53.40 +08 45 19.0 19.4 V 703 – Catalina Sky Survey MPS 138512
2005 07 08.37419 22 53 15.64 +09 26 15.3 20.1 V 703 – Catalina Sky Survey MPS 138512
2005 07 08.38068 22 53 15.90 +09 26 17.4 19.5 V 703 – Catalina Sky Survey MPS 138512
2005 07 08.38715 22 53 16.15 +09 26 21.2 20.2 V 703 – Catalina Sky Survey MPS 138512
2005 07 08.39358 22 53 16.36 +09 26 23.9 19.6 V 703 – Catalina Sky Survey MPS 138512
2005 08 31.24457 22 46 18.31 +08 45 59.0 18.5 R 699 – Lowell Observatory-LONEOS MPS 140234
2005 08 31.27009 22 46 17.23 +08 45 44.6   699 – Lowell Observatory-LONEOS MPS 140234
2005 08 31.29560 22 46 16.16 +08 45 28.9   699 – Lowell Observatory-LONEOS MPS 140234
2005 08 31.32113 22 46 15.08 +08 45 13.0   699 – Lowell Observatory-LONEOS MPS 140234
2005 09 01.26900 22 45 37.52 +08 35 23.9 18.8   704 – Lincoln Laboratory ETS, New Mexico MPS 140234
2005 09 01.28026 22 45 37.05 +08 35 17.9 19.1   704 – Lincoln Laboratory ETS, New Mexico MPS 140234
2005 09 01.29154 22 45 36.59 +08 35 09.9 19.2   704 – Lincoln Laboratory ETS, New Mexico MPS 140234
2005 09 09.23545 22 40 27.65 +07 04 29.1 19.1   704 – Lincoln Laboratory ETS, New Mexico MPS 141726
2005 09 09.24665 22 40 27.14 +07 04 20.3 18.8   704 – Lincoln Laboratory ETS, New Mexico MPS 141726
2005 09 09.25806 22 40 26.71 +07 04 12.5 18.5   704 – Lincoln Laboratory ETS, New Mexico MPS 141726
2005 09 09.26925 22 40 26.29 +07 04 03.7 19.1   704 – Lincoln Laboratory ETS, New Mexico MPS 141726
2005 09 09.28052 22 40 25.76 +07 03 56.2 18.7   704 – Lincoln Laboratory ETS, New Mexico MPS 141726
2005 09 23.19927 22 33 24.48 +04 06 52.3 19.0 R 644 – Palomar Mountain/NEAT MPS 144008
2005 09 23.22020 22 33 23.97 +04 06 36.5 19.5 R 644 – Palomar Mountain/NEAT MPS 144008
2005 09 23.24198 22 33 23.45 +04 06 19.8 19.0 R 644 – Palomar Mountain/NEAT MPS 144008
2005 09 26.24810 22 32 25.90 +03 28 18.3 18.8 V 703 – Catalina Sky Survey MPS 142679
2005 09 26.25544 22 32 25.80 +03 28 13.0 18.9 V 703 – Catalina Sky Survey MPS 142679
2005 09 26.26273 22 32 25.62 +03 28 07.2 18.4 V 703 – Catalina Sky Survey MPS 142679
2005 09 26.27006 22 32 25.51 +03 28 01.6 19.1 V 703 – Catalina Sky Survey MPS 142679
2005 09 30.15266 22 31 33.49 +02 40 21.2 19.3 V 703 – Catalina Sky Survey MPS 144008
2005 09 30.15917 22 31 33.52 +02 40 16.9 19.2 V 703 – Catalina Sky Survey MPS 144008
2005 09 30.16568 22 31 33.38 +02 40 12.9 19.2 V 703 – Catalina Sky Survey MPS 144008
2005 09 30.17219 22 31 33.34 +02 40 08.1 19.0 V 703 – Catalina Sky Survey MPS 144008
2005 10 08.15175 22 31 09.93 +01 09 48.6 18.7   704 – Lincoln Laboratory ETS, New Mexico MPS 144008
2005 10 08.16259 22 31 09.91 +01 09 41.7 19.6   704 – Lincoln Laboratory ETS, New Mexico MPS 144008
2005 10 08.18431 22 31 10.03 +01 09 28.2 19.4   704 – Lincoln Laboratory ETS, New Mexico MPS 144008
2005 10 11.234497 22 31 32.184 +00 38 25.26 19.73 V 645 – Apache Point-Sloan Digital Sky Survey MPS 390327
2005 10 11.237969 22 31 32.211 +00 38 23.28 20.57   645 – Apache Point-Sloan Digital Sky Survey MPS 390327
2005 10 12.184887 22 31 42.750 +00 29 11.92 19.78 V 645 – Apache Point-Sloan Digital Sky Survey MPS 390327
2005 10 12.188359 22 31 42.787 +00 29 09.90 20.64   645 – Apache Point-Sloan Digital Sky Survey MPS 390327
2005 10 13.182357 22 31 55.496 +00 19 45.36 19.78 V 645 – Apache Point-Sloan Digital Sky Survey MPS 390327
2005 10 13.185829 22 31 55.534 +00 19 43.48 20.61   645 – Apache Point-Sloan Digital Sky Survey MPS 390327
2005 10 21.211917 22 34 42.539 -00 47 07.79 19.99 V 645 – Apache Point-Sloan Digital Sky Survey MPS 390327
2005 10 21.215389 22 34 42.623 -00 47 09.32 20.91   645 – Apache Point-Sloan Digital Sky Survey MPS 390327
2005 11 30.11978 23 11 42.72 -02 19 39.9 21.0 V G96 – Mt. Lemmon Survey MPS 152092
2005 11 30.12564 23 11 43.08 -02 19 39.5 20.5 V G96 – Mt. Lemmon Survey MPS 152092
2005 11 30.13139 23 11 43.58 -02 19 38.1 20.6 V G96 – Mt. Lemmon Survey MPS 152092
2005 11 30.13705 23 11 44.01 -02 19 38.1 20.7 V G96 – Mt. Lemmon Survey MPS 152092
2008 02 29.41226 12 47 53.16 -11 51 04.0   691 – Steward Observatory, Kitt Peak-Spacewatch MPS 239437
2008 02 29.42992 12 47 52.59 -11 50 59.2   691 – Steward Observatory, Kitt Peak-Spacewatch MPS 239437
2008 02 29.44759 12 47 52.11 -11 50 54.9   691 – Steward Observatory, Kitt Peak-Spacewatch MPS 239437
2008 03 08.33046 12 43 28.18 -11 11 15.5   691 – Steward Observatory, Kitt Peak-Spacewatch MPS 242120
2008 03 08.34815 12 43 27.49 -11 11 09.9   691 – Steward Observatory, Kitt Peak-Spacewatch MPS 242120
2008 03 08.36584 12 43 26.75 -11 11 03.4   691 – Steward Observatory, Kitt Peak-Spacewatch MPS 242120
2008 05 03.22456 12 02 42.68 -03 22 57.3 21.2 V G96 – Mt. Lemmon Survey MPS 248965
2008 05 03.22970 12 02 42.54 -03 22 55.3 20.8 V G96 – Mt. Lemmon Survey MPS 248965
2008 05 03.23472 12 02 42.43 -03 22 53.3 21.0 V G96 – Mt. Lemmon Survey MPS 248965
2008 05 03.23978 12 02 42.28 -03 22 51.3 21.0 V G96 – Mt. Lemmon Survey MPS 248965
2009 09 11.30432 01 19 12.79 +15 14 06.7 19.2 V 703 – Catalina Sky Survey MPS 294422
2009 09 11.31042 01 19 12.64 +15 14 03.6 19.4 V 703 – Catalina Sky Survey MPS 294422
2009 09 11.31654 01 19 12.39 +15 14 01.5 20.0 V 703 – Catalina Sky Survey MPS 294422
2009 09 11.32264 01 19 12.28 +15 13 57.9 19.6 V 703 – Catalina Sky Survey MPS 294422
2009 09 21.93693 01 13 46.45 +13 40 06.1 19.3 V J75 – OAM Observatory, La Sagra MPS 295825
2009 09 21.94927 01 13 45.99 +13 39 58.4 19.5 V J75 – OAM Observatory, La Sagra MPS 295825
2009 09 21.96166 01 13 45.48 +13 39 50.5 19.1 V J75 – OAM Observatory, La Sagra MPS 295825
2009 09 25.28042 01 11 32.27 +13 04 46.8 19.6   704 – Lincoln Laboratory ETS, New Mexico MPS 296919
2009 09 25.29241 01 11 31.74 +13 04 38.5 19.9   704 – Lincoln Laboratory ETS, New Mexico MPS 296919
2009 09 25.30465 01 11 31.24 +13 04 30.9 19.9   704 – Lincoln Laboratory ETS, New Mexico MPS 296919
2009 09 25.31666 01 11 30.74 +13 04 23.6 19.9   704 – Lincoln Laboratory ETS, New Mexico MPS 296919
2009 09 25.32867 01 11 30.17 +13 04 14.7 20.0   704 – Lincoln Laboratory ETS, New Mexico MPS 296919
2009 09 30.23969 01 07 55.27 +12 08 25.0 19.2 V G96 – Mt. Lemmon Survey MPS 296919
2009 09 30.24572 01 07 54.98 +12 08 20.7 19.1 V G96 – Mt. Lemmon Survey MPS 296919
2009 09 30.25188 01 07 54.69 +12 08 16.3 19.1 V G96 – Mt. Lemmon Survey MPS 296919
2009 09 30.25803 01 07 54.37 +12 08 12.1 19.3 V G96 – Mt. Lemmon Survey MPS 296919
2009 10 08.93586 01 01 08.32 +10 22 15.9 19.0 V J75 – OAM Observatory, La Sagra MPS 298310
2009 10 08.94819 01 01 07.70 +10 22 07.1 18.4 V J75 – OAM Observatory, La Sagra MPS 298310
2009 10 08.96060 01 01 07.04 +10 21 57.4 18.8 V J75 – OAM Observatory, La Sagra MPS 298310
2009 10 09.84115 01 00 25.71 +10 10 56.5 18.9 V A50 – Andrushivka Astronomical Observatory MPS 298310
2009 10 09.86218 01 00 24.67 +10 10 41.8 18.8 V A50 – Andrushivka Astronomical Observatory MPS 298310
2009 10 11.28218 00 59 18.24 +09 52 57.6 18.8 V G96 – Mt. Lemmon Survey MPS 298310
2009 10 11.31758 00 59 16.47 +09 52 31.1 18.8 V G96 – Mt. Lemmon Survey MPS 298310
2009 10 11.32327 00 59 16.22 +09 52 26.9 18.8 V G96 – Mt. Lemmon Survey MPS 298310
2009 10 11.32884 00 59 15.93 +09 52 22.6 18.9 V G96 – Mt. Lemmon Survey MPS 298310
2009 10 12.24591 00 58 33.70 +09 40 56.3 20.3 R 683 – Goodricke-Pigott Observatory, Tucson MPS 298310
2009 10 12.25940 00 58 33.19 +09 40 44.5 19.8 R 683 – Goodricke-Pigott Observatory, Tucson MPS 298310
2009 10 12.27302 00 58 32.41 +09 40 34.0 19.2 R 683 – Goodricke-Pigott Observatory, Tucson MPS 298310
